Location: Castle Hill Houses
(40.8186°N, 73.8497°W)
Time: 19:43:06
(UTC+00:00)

BREEZE M DEB (TANK) - Pass Details

Date: 26 January 2020
Orbit: 322 x 13661 km, 49.5° (Epoch: 16 February)

Event Time Altitude Azimuth Distance (km) Brightness Sun altitude
Exits shadow 10:41:07 33° 329° (NNW) 757 3.2 -17.1°
Maximum altitude 10:41:29 35° 347° (NNW) 769 3.3 -17.0°
Drops below altitude 10° 10:45:55 10° 55° (NE) 2,540 6.8 -16.2°
Sets 10:50:26 0° 63° (ENE) 4,668 8.4 -15.4°
